[[{"header":{"parameterUnit":"m.s-1","parameterCategory":1,"la1":30.2991,"la2":30.254,"lo1":-89.0895,"lo2":-89.0444,"dy":0.0017,"dx":0.0017,"nx":28,"ny":28,"refTime":"2023-10-29T21:00:00:Z","depth":0,"parameterNumber":2,"parameterNumberName":"U-component_of_WINDS"},"data":[0,0,0,0,0,0,0,0,0,0,0,0,0,0,0,0,0,0,0,0,0,0,0,0,0,0,0,0,0,0,0,0,0,0,0,0,0,0,0,0,0,0,0,0,0,0,0,0,0,0,0,0,0,0,0,0,0,0,0.11,0.1099,0,0.1025,0.1024,0.1023,0.1008,0.1009,0.101,0.101,0.0931,0.0928,0.0926,0,0,0,0,0,0,0,0,0,0,0,0,0,0.123,0.1228,0.11,0.1099,0.1098,0.1025,0.1024,0.1023,0.1008,0.1009,0.101,0.1011,0.0932,0.0929,0.0925,0,0,0,0,0,0,0,0,0,0,0,0,0,0.1166,0.1227,0.11,0.1082,0.108,0.1025,0.1024,0.1023,0.1008,0.1009,0.101,0.1011,0.0933,0.0929,0.0925,0.0882,0,0,0.0913,0.0911,0,0,0,0,0,0,0,0,0.117,0.1161,0.1086,0.1083,0.1081,0.1027,0.1041,0.0976,0.1008,0.1035,0.101,0.1011,0.0962,0.0956,0.094,0.0879,0.0875,0.0912,0.091,0.0908,0.0907,0,0,0,0,0,0,0,0.1174,0.1165,0.107,0.1085,0.1082,0.1078,0.1069,0.1028,0.0994,0.1033,0.1032,0.1023,0.0961,0.0943,0.0938,0.0874,0.0913,0.0909,0.0907,0.0905,0.0776,0.0775,0,0,0,0,0,0,0.1182,0.1168,0.1073,0.1068,0.1128,0.1075,0.1065,0.1043,0.0995,0.0988,0.1023,0.1023,0.095,0.0942,0.0935,0.0882,0.0908,0.0905,0.0902,0.0777,0.0776,0.0775,0,0,0,0,0,0,0.1185,0.1174,0.1076,0.1118,0.1105,0.1071,0.1047,0.1041,0.1024,0.0987,0.0981,0.1011,0.095,0.094,0.0896,0.0879,0.0903,0.0899,0.0779,0.0777,0.0776,0.0777,0,0,0,0,0,0,0.1189,0.1175,0.1158,0.1118,0.1103,0.1038,0.1046,0.1039,0.1017,0.1017,0.0975,0.0968,0.095,0.0902,0.0892,0.0874,0.0896,0.078,0.0778,0.0776,0.0778,0.0776,0.0774,0,0,0,0,0,0.1193,0.1161,0.1158,0.1146,0.1082,0.1038,0.1029,0.1009,0.1016,0.0999,0.0976,0.097,0.0883,0.0898,0.0886,0.0867,0.0781,0.0778,0.0776,0.0779,0.0776,0.0774,0,0,0,0,0,0,0.1199,0.1155,0.1151,0.1104,0.1075,0.1035,0.1013,0.1007,0.0974,0.0975,0.0951,0.0942,0.0899,0.0879,0.0896,0.0824,0.0832,0.0828,0.0839,0.0836,0.0833,0.0839,0.0893,0,0,0,0,0,0.1195,0.1164,0.1127,0.1089,0.1075,0.1047,0.1027,0.1014,0.0983,0.097,0.0943,0.0912,0.0878,0.0856,0.0822,0.0776,0.0767,0.0757,0.0755,0.0753,0.0749,0.0724,0.072,0.0767,0.0767,0.0768,0,0,0.1186,0.1158,0.114,0.109,0.1065,0.1033,0.1036,0.1001,0.0977,0.0964,0.0921,0.0901,0.0864,0.0819,0.0798,0.0801,0.0734,0.075,0.0749,0.0746,0.0721,0.0717,0.0713,0.0766,0.0766,0.0766,0,0,0.1153,0.1129,0.1096,0.1072,0.1036,0.1018,0.101,0.0971,0.0958,0.0914,0.0905,0.0875,0.0817,0.0792,0.0772,0.0732,0.0725,0.0722,0.0709,0.0685,0.0681,0.0678,0.0664,0.0659,0.0718,0.0718,0.0718,0,0.1146,0.1098,0.1079,0.1045,0.1024,0.1013,0.0979,0.0956,0.0911,0.0896,0.0901,0.0828,0.0803,0.0752,0.0743,0.0727,0.0717,0.0726,0.0683,0.068,0.0676,0.0663,0.0657,0.0718,0.0718,0.0718,0.0718,0,0.1091,0.1058,0.1035,0.0993,0.0969,0.0935,0.0911,0.089,0.088,0.0862,0.0818,0.0788,0.0749,0.0736,0.0726,0.0685,0.0688,0.0688,0.0696,0.0672,0.0659,0.0653,0.0718,0.0718,0.0718,0.0718,0,0,0.1057,0.1007,0.0999,0.0981,0.0941,0.0914,0.0881,0.0844,0.0826,0.0795,0.0766,0.0718,0.0719,0.0696,0.0683,0.0662,0.0634,0.0665,0.0664,0.066,0.0587,0.0587,0.0581,0.063,0.0629,0.0628,0.059,0,0.102,0.0959,0.0943,0.0892,0.0861,0.0851,0.0822,0.0795,0.0777,0.0748,0.0729,0.0695,0.0698,0.0685,0.0664,0.0642,0.0619,0.0644,0.0602,0.0601,0.0611,0.0574,0.0573,0.0539,0.0585,0.0584,0.0583,0,0.0967,0.0937,0.0883,0.0849,0.0836,0.081,0.0775,0.0748,0.0717,0.0706,0.0682,0.0671,0.0636,0.0647,0.0598,0.0616,0.0598,0.0585,0.0583,0.0578,0.059,0.0567,0.0527,0.0522,0.0575,0.0576,0.0576,0,0.0948,0.0894,0.0855,0.084,0.0799,0.0781,0.0763,0.0733,0.0713,0.0683,0.0669,0.0635,0.0616,0.059,0.0571,0.0581,0.0524,0.0533,0.0514,0.0514,0.0501,0.0502,0.0458,0.0491,0.0491,0.0491,0.0491,0,0.0907,0.0874,0.0847,0.0823,0.0786,0.0768,0.0733,0.0714,0.0688,0.0661,0.065,0.0625,0.0601,0.0573,0.0557,0.052,0.0511,0.0501,0.0498,0.0502,0.0503,0.0489,0.0491,0.049,0.049,0.049,0.0491,0,0.0879,0.0859,0.0816,0.0782,0.0773,0.0747,0.0718,0.0695,0.0678,0.0643,0.0634,0.0607,0.0573,0.0552,0.0508,0.0498,0.0457,0.0454,0.0468,0.0466,0.0448,0.045,0.0392,0.0384,0.0423,0.0423,0.0422,0,0.0854,0.0829,0.0792,0.0774,0.0756,0.0726,0.0705,0.0687,0.0666,0.063,0.0611,0.0577,0.0548,0.0495,0.0471,0.0438,0.0434,0.0416,0.0429,0.0435,0.0434,0.0435,0.0433,0.0414,0.0413,0.0413,0.0413,0,0.0811,0.0803,0.0774,0.0742,0.0718,0.0692,0.0665,0.0651,0.0628,0.0605,0.0571,0.0549,0.0505,0.0471,0.0437,0.0418,0.0412,0.041,0.0403,0.0407,0.0416,0.0411,0.0462,0.041,0.0411,0.0411,0.0411,0.0411,0.0783,0.0761,0.0733,0.0701,0.068,0.0656,0.0633,0.0614,0.0585,0.0549,0.054,0.0505,0.0476,0.0429,0.041,0.0382,0.0385,0.0376,0.0373,0.0371,0.0371,0.0421,0.0376,0.0376,0.0376,0.0376,0.0376,0,0.074,0.0722,0.0693,0.0658,0.0633,0.0631,0.0602,0.0582,0.0551,0.0525,0.0498,0.0459,0.0427,0.0402,0.0369,0.0351,0.0348,0.0343,0.0344,0.034,0.037,0.0379,0.0347,0.0347,0.0347,0.0347,0.0347,0.0347,0.0715,0.0678,0.0667,0.0619,0.0601,0.0567,0.0551,0.0529,0.0508,0.0466,0.044,0.0424,0.0399,0.0364,0.0335,0.0328,0.0317,0.0313,0.0306,0.0334,0.0338,0.0341,0.0349,0.031,0.031,0.0278,0.0277,0.0277]},{"header":{"parameterUnit":"m.s-1","parameterCategory":1,"la1":30.2991,"la2":30.254,"lo1":-89.0895,"lo2":-89.0444,"dy":0.0017,"dx":0.0017,"nx":28,"ny":28,"refTime":"2023-10-29T21:00:00:Z","depth":0,"parameterNumber":3,"parameterNumberName":"V-component_of_WINDS"},"data":[0,0,0,0,0,0,0,0,0,0,0,0,0,0,0,0,0,0,0,0,0,0,0,0,0,0,0,0,0,0,0,0,0,0,0,0,0,0,0,0,0,0,0,0,0,0,0,0,0,0,0,0,0,0,0,0,0,0,-8.4211,-8.4212,0,-8.4321,-8.4322,-8.4323,-8.4238,-8.4234,-8.4231,-8.4227,-8.4332,-8.4338,-8.4344,0,0,0,0,0,0,0,0,0,0,0,0,0,-8.3921,-8.3927,-8.4211,-8.4212,-8.4214,-8.432,-8.4322,-8.4323,-8.4239,-8.4234,-8.423,-8.4226,-8.433,-8.4337,-8.4345,0,0,0,0,0,0,0,0,0,0,0,0,0,-8.404,-8.3929,-8.4211,-8.4184,-8.4183,-8.432,-8.4322,-8.4324,-8.424,-8.4234,-8.4229,-8.4223,-8.4328,-8.4337,-8.4346,-8.4512,0,0,-8.4374,-8.4378,0,0,0,0,0,0,0,0,-8.4034,-8.4051,-8.4187,-8.4187,-8.4185,-8.426,-8.4258,-8.4387,-8.4241,-8.4218,-8.4227,-8.4221,-8.4312,-8.4322,-8.4355,-8.4517,-8.4522,-8.4375,-8.4381,-8.4385,-8.4387,0,0,0,0,0,0,0,-8.4026,-8.4046,-8.4254,-8.4189,-8.4188,-8.4165,-8.4176,-8.4282,-8.4294,-8.4219,-8.4214,-8.4228,-8.431,-8.4346,-8.4356,-8.4523,-8.4375,-8.4383,-8.4389,-8.4392,-8.4827,-8.4832,0,0,0,0,0,0,-8.4021,-8.404,-8.425,-8.4257,-8.4095,-8.4175,-8.4187,-8.4242,-8.4293,-8.4295,-8.4233,-8.4224,-8.4333,-8.4346,-8.436,-8.4557,-8.4384,-8.4393,-8.4398,-8.4821,-8.4828,-8.4834,0,0,0,0,0,0,-8.4015,-8.4041,-8.4246,-8.4147,-8.4171,-8.4185,-8.4248,-8.4247,-8.4282,-8.4303,-8.4304,-8.4267,-8.4329,-8.4347,-8.4475,-8.456,-8.4397,-8.4406,-8.4814,-8.4823,-8.4831,-8.4955,0,0,0,0,0,0,-8.4007,-8.4039,-8.4104,-8.4149,-8.4177,-8.4362,-8.4253,-8.4253,-8.4299,-8.4288,-8.4335,-8.4338,-8.4326,-8.4462,-8.4485,-8.457,-8.4413,-8.4806,-8.4818,-8.4828,-8.4943,-8.4967,-8.4987,0,0,0,0,0,-8.3997,-8.4133,-8.4108,-8.4134,-8.4259,-8.4367,-8.4383,-8.4369,-8.4306,-8.437,-8.4384,-8.4336,-8.4547,-8.4476,-8.45,-8.459,-8.4801,-8.4814,-8.4827,-8.4933,-8.4962,-8.4986,0,0,0,0,0,0,-8.4094,-8.4138,-8.4111,-8.4266,-8.4314,-8.4353,-8.4434,-8.44,-8.4465,-8.4452,-8.4429,-8.4441,-8.4576,-8.4595,-8.4515,-8.4753,-8.4663,-8.4683,-8.4735,-8.4763,-8.4785,-8.4776,-8.4421,0,0,0,0,0,-8.4134,-8.4221,-8.4254,-8.4387,-8.4413,-8.442,-8.4466,-8.4452,-8.4499,-8.4518,-8.4541,-8.4587,-8.4664,-8.4714,-8.4786,-8.4946,-8.4954,-8.5019,-8.5041,-8.5059,-8.5075,-8.516,-8.519,-8.4879,-8.4878,-8.4878,0,0,-8.4217,-8.4251,-8.4307,-8.4408,-8.4443,-8.4531,-8.4437,-8.4534,-8.4599,-8.4532,-8.4656,-8.4674,-8.4724,-8.4869,-8.4934,-8.4889,-8.5163,-8.5076,-8.509,-8.5097,-8.5177,-8.5207,-8.5233,-8.4888,-8.4886,-8.4885,0,0,-8.4412,-8.4448,-8.4563,-8.4601,-8.4657,-8.4661,-8.4689,-8.4733,-8.4744,-8.4868,-8.482,-8.4895,-8.5028,-8.5065,-8.5102,-8.5312,-8.527,-8.5336,-8.545,-8.5534,-8.5558,-8.558,-8.5654,-8.5681,-8.5352,-8.5353,-8.5353,0,-8.4507,-8.464,-8.4626,-8.4727,-8.4772,-8.4719,-8.4834,-8.4871,-8.4946,-8.4978,-8.4928,-8.5093,-8.5123,-8.5276,-8.5327,-8.5359,-8.5388,-8.533,-8.5556,-8.5578,-8.5598,-8.5668,-8.5696,-8.536,-8.536,-8.5359,-8.5358,0,-8.4753,-8.4847,-8.4932,-8.501,-8.5064,-8.5172,-8.5172,-8.5229,-8.5209,-8.5218,-8.5344,-8.5378,-8.5456,-8.5491,-8.5472,-8.5641,-8.5612,-8.556,-8.5469,-8.5635,-8.5701,-8.5728,-8.5371,-8.5368,-8.5366,-8.5364,0,0,-8.5012,-8.5081,-8.5113,-8.5147,-8.5206,-8.5276,-8.5381,-8.5459,-8.5508,-8.5562,-8.5648,-8.5762,-8.5714,-8.5756,-8.574,-8.5814,-8.5978,-8.5752,-8.5753,-8.5792,-8.6165,-8.6203,-8.6235,-8.5951,-8.5956,-8.596,-8.616,0,-8.5209,-8.5395,-8.5385,-8.5558,-8.5643,-8.5594,-8.5685,-8.5729,-8.574,-8.5812,-8.5822,-8.5903,-8.5835,-8.586,-8.593,-8.5943,-8.6052,-8.5928,-8.6028,-8.6032,-8.6017,-8.627,-8.631,-8.6498,-8.6186,-8.619,-8.6194,0,-8.5465,-8.5531,-8.5713,-8.5759,-8.5794,-8.5877,-8.5947,-8.6018,-8.6066,-8.6069,-8.6116,-8.6089,-8.6192,-8.61,-8.6242,-8.6158,-8.6198,-8.6211,-8.6217,-8.6225,-8.6122,-8.6283,-8.6557,-8.6585,-8.6234,-8.6231,-8.6228,0,-8.5634,-8.5768,-8.5894,-8.5925,-8.5982,-8.6041,-8.6067,-8.6111,-8.6159,-8.622,-8.6251,-8.6322,-8.6361,-8.6417,-8.6409,-8.6343,-8.6552,-8.646,-8.6555,-8.6556,-8.6601,-8.6598,-8.6885,-8.6629,-8.6628,-8.6628,-8.6627,0,-8.5856,-8.5969,-8.5972,-8.6049,-8.6174,-8.6161,-8.6284,-8.6303,-8.6342,-8.6421,-8.6382,-8.6456,-8.6442,-8.6515,-8.6509,-8.6626,-8.6644,-8.6648,-8.6645,-8.6651,-8.6651,-8.6676,-8.6662,-8.6635,-8.6633,-8.6632,-8.6631,0,-8.6066,-8.6072,-8.6207,-8.6251,-8.6264,-8.6354,-8.639,-8.6463,-8.6471,-8.6571,-8.6593,-8.6605,-8.6689,-8.6687,-8.6782,-8.6778,-8.6922,-8.6904,-8.6907,-8.6903,-8.6998,-8.6989,-8.7311,-8.7352,-8.707,-8.7073,-8.7075,0,-8.6206,-8.6292,-8.6347,-8.6398,-8.6429,-8.6511,-8.6561,-8.6551,-8.6603,-8.6666,-8.673,-8.6812,-8.6876,-8.7013,-8.7028,-8.71,-8.7083,-8.7191,-8.7094,-8.7097,-8.7084,-8.7079,-8.7087,-8.721,-8.7213,-8.7215,-8.7218,0,-8.6454,-8.6454,-8.6528,-8.6604,-8.6665,-8.6724,-8.6777,-8.6821,-8.6816,-8.6877,-8.6965,-8.7015,-8.7113,-8.7194,-8.7264,-8.7287,-8.7252,-8.7249,-8.7274,-8.7281,-8.7279,-8.728,-8.6958,-8.7241,-8.7238,-8.7237,-8.7235,-8.7235,-8.6633,-8.6708,-8.6758,-8.6842,-8.6882,-8.6933,-8.7004,-8.7022,-8.7095,-8.7177,-8.7165,-8.7263,-8.7308,-8.7399,-8.7429,-8.7503,-8.7465,-8.7502,-8.7511,-8.7521,-8.7531,-8.7268,-8.7516,-8.7515,-8.7514,-8.7514,-8.7513,0,-8.6879,-8.6909,-8.6987,-8.7065,-8.7131,-8.7094,-8.7152,-8.7208,-8.7296,-8.7342,-8.7408,-8.7508,-8.7586,-8.7608,-8.7683,-8.7738,-8.7723,-8.7758,-8.7753,-8.7759,-8.7562,-8.7532,-8.7768,-8.7768,-8.7768,-8.7768,-8.7768,-8.7768,-8.7014,-8.7139,-8.7144,-8.7287,-8.7315,-8.7413,-8.7449,-8.7495,-8.7533,-8.7647,-8.7713,-8.7728,-8.7765,-8.7842,-8.7911,-8.7916,-8.7944,-8.7986,-8.7983,-8.7798,-8.7773,-8.7748,-8.772,-8.7992,-8.7993,-8.8174,-8.8176,-8.8177]}]]